Location: ???????
(55.4362°N, 38.1183°E)
Time: 00:38:05
(UTC+00:00)

CZ-3B R/B - Pass Details

Date: 17 June 2021
Orbit: 340 x 17329 km, 54.9° (Epoch: 05 August)

Event Time Altitude Azimuth Distance (km) Brightness Sun altitude
Rises 20:22:07 0° 244° (WSW) 13,686 8.8 -9.9°
Reaches altitude 10° 20:36:58 10° 246° (WSW) 9,500 7.9 -10.4°
Maximum altitude 20:59:29 79° 166° (SSE) 1,511 3.9 -10.9°
Drops below altitude 10° 21:04:23 10° 80° (E) 2,339 5.1 -11.0°
Sets 21:05:46 0° 79° (ENE) 2,930 5.6 -11.0°
